Theta_e
311 311 310 310 310 310 310 310 309 309 307 328 320 322 314 313 309 326 329 330 322 313 305 309 308 307 310 313 314 315 314 310 311 309 310 308 309 308 306 308 305 307 305 305 304 304 302 303 302 302 303 306 307 308 309 309 307 307 309 308 308 309 302 300 300 304 305 305 306 308 309 306 302 303 304 303 300 301 298 297 299 295 296 293 293 290 295
311 311 310 310 310 310 310 310 309 309 307 315 324 326 316 314 313 320 328 330 323 310 298 299 303 310 311 311 312 313 313 311 309 308 309 309 308 308 309 308 307 306 307 306 302 305 298 303 302 301 304 303 309 308 308 307 306 306 309 305 310 297 303 300 296 294 297 300 302 304 308 307 302 302 305 304 304 303 304 302 302 291 297 297 293 287 293
311 311 311 310 310 310 310 310 309 309 309 310 321 324 316 314 316 316 322 327 322 307 309 308 308 310 312 311 313 311 310 312 311 310 309 310 310 307 308 308 308 307 307 305 306 305 302 302 305 303 303 305 309 308 308 309 310 313 314 319 312 304 302 300 292 289 287 286 289 292 297 300 304 305 303 304 302 304 301 294 301 292 297 300 294 291 301
310 311 311 310 310 309 309 309 309 309 309 307 321 321 318 311 299 311 315 320 317 313 315 313 311 310 312 308 313 312 309 310 311 311 310 310 310 309 308 309 308 306 305 304 303 304 305 301 303 302 301 305 307 307 309 310 312 317 318 314 311 306 307 304 302 296 292 296 300 306 304 302 299 301 303 302 303 304 303 302 297 293 297 296 299 300 301
310 310 310 310 310 309 309 309 309 308 309 307 320 320 319 320 307 305 302 317 313 310 311 311 313 309 314 302 310 310 310 310 309 311 306 310 310 311 308 307 306 304 306 304 304 304 304 304 304 302 303 306 307 308 309 308 314 320 312 312 310 307 301 304 304 303 304 304 304 304 304 300 300 300 301 302 301 302 301 296 294 301 297 291 300 304 300
310 310 310 310 310 310 310 309 309 309 309 306 321 312 316 307 315 312 324 309 303 303 304 311 312 316 314 311 315 312 310 308 307 306 308 310 312 308 307 306 308 308 306 305 297 302 304 304 303 305 307 305 306 306 308 308 316 312 308 310 308 305 298 306 305 304 305 304 304 303 303 302 302 301 301 301 302 301 302 300 301 302 294 293 302 302 301
309 309 310 310 310 310 310 309 309 308 308 310 326 315 316 314 314 313 319 307 312 313 314 316 312 313 314 312 313 310 309 308 308 308 307 307 308 308 297 304 307 308 308 306 307 305 300 298 305 305 306 305 305 304 306 310 310 308 310 309 314 308 302 305 305 304 304 304 303 303 302 301 300 300 302 301 303 301 302 302 302 302 301 301 302 302 304
308 309 309 310 310 310 310 309 308 308 307 319 321 317 314 311 308 310 318 317 314 316 317 314 312 311 314 304 311 311 310 308 308 309 308 305 306 310 305 305 307 309 308 308 306 309 308 308 304 308 310 305 308 306 308 307 308 308 310 308 313 304 298 304 305 301 302 304 304 303 302 301 300 301 301 301 301 302 302 301 303 304 303 301 301 300 302
308 308 308 309 309 310 310 309 309 308 308 330 319 318 319 324 326 324 314 311 311 314 315 313 311 308 311 308 311 310 310 308 310 309 311 309 308 308 305 309 310 309 307 309 308 311 309 308 309 311 312 303 309 308 308 309 305 308 308 309 311 308 300 305 303 294 299 304 303 303 302 302 301 302 302 301 301 300 303 301 303 301 301 302 303 301 301
307 307 307 308 309 309 309 309 309 308 309 332 329 314 331 330 331 326 319 308 311 309 314 314 311 303 311 311 312 310 310 311 311 308 310 311 311 311 310 312 311 308 308 306 311 312 311 312 313 312 313 312 312 311 310 309 309 307 308 311 307 307 302 300 297 295 294 304 303 303 302 301 298 300 302 304 304 304 305 306 304 305 304 300 296 300 307
307 307 307 308 308 308 308 309 309 308 313 320 323 328 327 322 322 326 320 307 311 312 311 310 308 310 314 314 312 313 312 311 312 305 302 309 310 311 310 310 307 307 307 312 315 314 314 314 313 314 312 311 309 309 309 309 311 310 310 306 307 309 307 301 305 292 295 302 302 302 298 290 292 307 309 307 304 305 303 303 305 307 306 304 306 307 310
307 307 307 307 308 308 308 308 309 308 309 314 319 326 329 328 326 326 319 305 307 314 311 313 309 314 312 313 312 312 311 311 311 312 310 311 312 311 310 311 310 302 314 317 313 313 314 313 312 311 310 309 309 309 309 308 308 310 311 307 306 305 304 300 307 296 294 302 302 294 287 291 307 311 312 310 309 307 306 306 307 309 308 307 305 307 308
306 306 307 307 308 308 308 308 308 308 308 312 318 325 331 329 324 324 322 314 307 311 312 310 315 314 315 314 312 313 314 314 314 313 313 313 312 310 311 312 309 312 317 313 312 311 307 306 306 306 306 307 307 308 307 306 306 307 309 309 309 303 298 300 297 295 298 296 294 286 288 305 309 309 311 311 308 308 306 304 306 308 309 309 306 308 308
306 306 306 307 307 308 308 308 308 308 308 309 316 325 330 326 324 325 324 314 310 316 316 313 314 314 316 314 313 313 317 314 316 314 312 314 311 310 311 312 314 316 315 315 312 309 306 306 298 303 302 304 304 301 305 307 307 307 306 307 308 309 308 303 297 302 291 294 293 292 304 304 306 306 306 305 304 305 302 294 301 308 309 310 308 309 309
306 306 306 307 307 307 307 308 308 308 308 307 315 323 330 326 326 324 326 323 310 314 317 305 312 315 318 315 314 313 313 314 313 312 314 315 312 312 313 313 314 313 316 312 308 310 304 302 295 294 299 297 291 294 305 302 306 308 309 308 309 309 304 306 297 294 298 293 291 292 292 290 299 309 311 313 314 313 312 306 302 311 311 312 310 309 310
305 306 306 306 307 307 307 308 308 308 307 307 317 322 330 328 328 326 323 321 317 305 311 316 318 317 315 313 315 312 309 311 312 313 312 312 313 313 314 314 315 315 311 309 311 305 301 295 293 293 292 296 301 299 297 303 302 306 309 308 308 309 310 308 299 296 295 292 289 289 288 292 306 308 311 313 313 311 311 303 297 308 311 310 311 309 311
305 305 306 306 307 307 307 307 307 307 307 307 310 317 327 330 326 322 320 321 319 308 320 319 319 319 314 313 316 313 314 308 313 306 304 310 311 312 312 314 318 315 310 309 309 303 298 297 301 300 301 302 297 295 301 301 301 301 305 307 305 305 303 298 297 293 295 293 291 289 293 294 306 310 311 309 312 312 306 292 294 309 312 311 311 310 311
305 305 305 306 307 307 307 307 308 307 307 307 310 316 324 332 330 326 322 320 314 314 318 320 317 315 312 315 313 316 317 315 314 317 311 312 312 311 310 311 307 310 313 303 306 300 298 297 294 294 294 303 304 303 293 299 296 297 301 302 301 300 299 300 295 296 296 292 293 295 296 309 313 310 311 310 314 308 293 289 299 313 313 313 313 310 313
304 305 305 306 306 306 306 307 307 307 307 306 310 321 327 331 331 327 322 317 315 308 319 321 322 320 321 322 319 318 317 317 315 307 307 309 311 314 312 311 311 303 307 302 306 297 297 296 303 301 297 300 304 295 303 296 296 303 303 300 301 301 301 298 298 296 295 298 294 294 300 309 312 312 312 312 307 292 292 306 318 317 313 313 312 313 315
304 304 305 305 305 306 306 307 307 307 306 306 308 314 320 330 329 328 318 315 317 313 318 320 320 318 321 318 316 315 316 316 317 313 310 305 317 314 309 303 308 309 308 308 296 303 297 295 298 303 298 299 303 306 300 302 304 301 302 305 300 301 296 296 296 298 298 294 293 292 289 302 315 313 309 311 297 303 311 314 315 315 314 313 313 314 315
303 304 304 305 305 306 306 306 306 306 307 307 307 313 320 330 327 329 326 320 313 307 310 320 321 318 319 320 321 320 318 315 318 314 323 315 322 314 296 296 305 306 302 302 296 297 299 297 301 302 303 301 307 305 296 298 301 307 305 305 304 309 297 297 299 304 293 293 291 292 300 311 317 311 300 307 308 316 319 315 312 314 314 313 313 315 317
303 303 304 305 305 305 305 305 306 306 306 306 306 315 316 321 324 326 325 325 317 309 313 319 320 320 322 323 323 324 322 322 322 323 320 311 323 315 313 312 311 310 312 312 306 306 306 305 306 301 298 301 309 299 305 298 294 302 308 309 296 310 304 309 299 308 297 297 303 309 315 315 315 316 316 316 318 319 317 314 316 314 313 314 314 315 318
303 303 304 305 305 305 305 305 306 306 306 306 307 311 311 317 321 327 327 319 323 323 325 324 325 324 324 325 327 327 327 327 327 328 326 319 313 317 313 313 312 316 316 317 309 307 307 306 301 306 301 303 299 300 304 303 297 303 299 307 305 312 312 320 312 307 313 314 313 317 314 314 313 314 316 316 319 318 317 314 314 315 316 315 314 315 316
303 303 304 304 305 305 305 305 306 306 306 306 306 309 311 316 319 323 320 320 318 312 317 320 315 311 314 317 323 326 326 325 326 329 334 332 312 311 317 317 323 319 322 328 323 312 311 310 311 310 300 307 306 300 296 296 301 304 304 306 308 311 312 311 304 309 303 296 312 311 313 315 315 314 316 318 319 318 317 316 314 316 316 313 319 317 318
303 303 303 304 304 304 305 305 305 305 305 306 307 310 314 317 323 322 317 306 310 310 303 309 309 317 319 322 325 325 326 328 329 331 329 331 326 318 316 325 326 329 324 325 326 317 309 305 309 308 298 310 309 298 307 299 301 309 299 303 306 305 315 308 307 306 303 302 310 313 315 316 317 315 314 315 316 318 318 319 318 319 321 317 319 320 317
302 302 303 303 304 304 304 305 305 305 306 306 306 309 310 314 322 325 322 320 319 316 305 305 312 319 321 319 320 323 326 326 325 325 325 325 326 325 324 332 333 335 332 327 326 309 306 305 301 303 303 303 313 302 300 308 306 311 305 306 312 310 311 301 309 306 307 309 310 311 315 314 314 315 316 317 317 316 318 317 317 318 318 317 317 319 316
302 302 303 303 303 304 304 304 305 305 305 306 307 310 313 318 325 322 318 315 310 304 307 304 311 314 318 316 321 325 324 323 323 322 322 323 323 325 325 327 327 326 321 319 321 316 308 305 305 305 309 308 312 311 311 307 307 306 304 312 315 311 306 310 308 303 300 302 307 313 303 303 311 315 316 316 319 319 318 318 315 316 317 316 315 315 320
302 302 303 303 303 304 304 304 305 305 305 306 308 313 318 321 323 321 323 319 314 305 304 304 307 313 316 315 321 323 323 323 322 321 321 322 324 323 323 321 324 321 319 314 307 306 305 304 305 309 312 320 310 307 313 312 311 309 310 310 314 309 312 309 300 301 301 309 310 319 317 315 316 316 318 321 319 320 318 316 316 316 318 317 317 316 317
302 302 302 303 303 304 304 304 304 305 305 305 310 314 318 323 323 321 320 321 319 313 306 307 311 309 305 312 321 321 324 324 323 321 321 321 322 322 321 321 321 320 319 312 308 307 307 307 314 306 309 319 314 305 309 302 301 299 306 313 314 318 317 315 313 315 313 313 314 316 316 313 316 316 318 318 320 318 317 318 319 318 317 317 318 316 316
301 302 302 303 303 304 304 304 304 305 305 307 311 313 312 315 320 318 316 318 319 317 305 301 299 304 316 316 315 318 320 322 322 321 319 320 320 321 320 321 321 319 319 310 308 302 307 306 311 315 321 325 313 309 303 304 302 306 313 313 314 315 313 318 318 314 311 313 314 315 318 317 317 318 318 320 320 319 317 317 319 319 318 319 317 317 317
301 302 302 303 303 303 303 304 305 305 305 308 309 303 303 301 313 316 313 317 319 315 307 305 301 310 308 313 314 313 317 319 320 319 319 320 320 321 322 322 321 319 312 310 309 308 310 306 309 311 316 319 312 305 306 304 300 305 312 314 313 313 313 314 319 320 316 315 314 315 317 318 319 315 317 320 320 320 321 318 319 322 319 317 317 318 318
301 301 302 302 303 303 304 305 305 305 306 306 305 307 311 308 311 313 313 312 316 315 307 303 301 302 301 307 311 315 315 317 318 319 319 320 319 322 322 320 318 318 312 310 309 308 308 306 312 313 311 317 309 309 308 305 300 303 312 314 316 317 317 318 319 318 317 316 314 313 313 315 316 313 313 319 319 320 320 318 318 320 321 319 319 319 319
301 302 302 303 303 304 304 305 306 305 304 306 308 307 308 308 308 310 309 312 315 312 315 305 300 301 298 306 312 313 314 316 316 317 316 322 317 320 317 321 321 318 318 313 307 305 313 312 313 309 313 320 309 305 307 304 305 311 312 312 314 315 315 316 317 317 316 315 314 311 311 314 315 316 317 318 318 317 318 316 316 317 318 317 316 316 316
301 302 302 303 303 304 305 305 306 306 307 306 309 311 314 309 311 307 309 313 314 315 309 302 297 297 298 309 303 310 316 312 312 314 308 319 319 319 314 317 320 309 314 311 311 310 310 314 307 308 318 313 316 303 300 307 311 311 312 312 314 314 314 314 314 314 314 314 314 315 316 317 319 321 320 317 317 320 319 318 316 315 315 315 314 313 315
301 302 302 303 304 305 305 305 309 309 307 310 315 317 314 307 306 306 309 312 308 303 301 300 301 297 296 299 300 304 313 312 309 313 310 312 324 316 317 308 314 306 309 320 309 304 307 307 315 304 302 312 306 300 304 309 311 312 312 311 313 313 313 311 312 314 315 315 313 314 316 315 314 313 313 314 315 316 316 315 314 314 314 313 312 313 315
301 302 303 304 304 305 308 309 309 310 306 304 304 306 306 307 307 312 315 317 312 306 301 303 300 298 299 293 294 302 311 307 313 314 313 319 315 318 316 309 303 309 320 314 305 312 305 314 308 302 310 303 299 305 309 312 311 312 313 312 314 313 314 314 315 314 315 316 313 313 314 315 311 312 314 314 315 315 315 314 313 314 314 313 313 316 316
302 303 304 305 308 308 307 307 310 307 302 303 304 306 306 307 314 317 316 313 317 317 307 304 299 300 303 301 303 308 307 299 312 308 315 310 306 306 312 304 302 306 309 305 306 305 311 317 308 302 302 301 303 311 312 313 313 313 313 315 315 315 314 313 315 316 314 314 312 314 311 312 312 313 314 314 315 315 313 312 313 313 312 313 314 315 316
301 303 305 303 300 294 296 301 302 306 306 306 307 309 314 309 301 305 306 303 310 312 308 307 299 303 307 304 297 311 308 302 308 302 302 308 306 305 310 305 305 302 299 302 305 315 307 306 304 303 303 310 313 312 313 314 315 317 316 315 315 315 314 314 314 314 313 312 311 311 310 311 311 313 314 314 314 313 315 315 314 315 314 314 316 317 317
303 302 300 299 297 293 294 299 308 306 307 309 310 302 299 305 302 298 298 303 302 302 308 305 300 304 302 300 302 311 308 305 303 304 299 313 302 300 305 299 304 303 300 300 305 314 300 302 303 303 302 309 309 312 314 315 315 315 316 316 317 317 316 314 316 316 314 312 313 314 313 310 311 313 315 316 314 314 315 314 314 314 315 315 316 316 317
297 294 293 294 293 295 303 305 307 305 306 300 306 301 294 301 296 293 302 296 296 301 306 298 307 306 306 302 301 301 311 305 298 298 302 305 313 301 304 302 305 299 295 296 299 312 301 297 301 301 301 307 309 315 314 314 314 315 316 317 317 317 318 315 315 316 318 317 315 314 314 314 317 315 315 314 314 313 314 314 314 315 315 315 317 316 318
294 295 295 291 297 301 303 306 307 306 300 294 296 297 294 293 297 298 296 293 294 296 307 304 306 305 308 308 306 301 309 312 309 308 306 299 310 310 300 295 305 296 295 296 303 304 302 300 300 300 301 309 310 313 314 314 314 315 316 316 317 317 317 317 316 316 315 314 314 313 313 314 315 315 316 315 315 315 315 315 314 315 316 315 318 318 318
294 294 297 300 301 302 303 303 302 297 295 297 292 289 293 293 296 296 294 291 292 297 300 299 297 297 297 300 301 306 305 311 310 304 298 297 302 300 297 300 300 295 293 301 309 303 300 295 297 298 306 310 312 313 313 312 313 314 314 316 317 318 317 316 315 315 315 314 313 313 314 317 316 316 316 316 316 317 317 316 316 317 316 318 318 316 317
301 302 303 301 300 298 297 292 294 293 289 288 288 286 291 288 291 290 293 297 299 297 297 302 300 302 304 308 304 307 305 313 303 302 299 297 303 301 298 297 296 292 297 308 303 297 295 295 295 301 309 310 311 312 312 313 313 314 315 318 319 320 318 317 316 315 315 314 316 316 316 318 319 318 317 316 317 317 317 316 316 317 316 316 315 317 318
302 300 296 295 291 291 296 285 294 290 289 290 287 281 286 286 289 292 291 291 293 293 295 292 294 294 291 301 298 299 305 308 310 302 300 302 299 295 295 293 295 303 308 299 297 294 295 298 302 305 308 310 310 311 311 312 312 313 313 313 315 317 318 317 316 315 315 315 316 317 318 318 318 318 317 317 316 317 317 316 316 317 318 318 316 316 318
292 289 289 288 286 289 289 282 293 289 284 286 289 288 290 287 289 290 289 292 292 290 295 295 293 291 290 296 299 301 302 298 306 300 294 298 296 297 294 294 298 299 296 293 295 296 295 297 304 306 307 308 309 311 311 312 312 312 313 313 314 314 316 317 316 315 314 314 315 316 316 316 316 315 316 317 316 317 317 317 317 316 316 316 316 316 318
288 286 286 283 281 287 286 284 288 286 290 290 289 291 291 291 290 290 294 295 292 293 291 291 291 293 291 296 291 293 297 297 295 296 299 299 293 292 298 302 300 295 293 294 291 292 295 300 303 305 307 308 309 310 310 312 312 312 312 311 314 316 316 317 317 316 315 315 316 315 316 315 315 315 316 317 316 317 317 319 319 318 317 317 317 317 318
287 289 288 286 283 285 289 283 285 288 292 293 294 294 294 294 294 294 295 295 293 294 293 293 292 293 290 291 290 292 295 296 293 296 298 293 292 296 300 295 291 292 290 289 290 293 297 302 305 306 308 309 310 310 310 311 311 312 312 314 317 316 317 316 317 316 316 315 315 315 315 315 315 315 316 316 317 318 317 320 322 321 319 318 318 318 318
283 287 287 279 279 284 282 285 293 294 295 294 294 295 295 296 293 292 295 296 295 296 293 290 288 291 291 297 296 290 292 292 290 292 296 293 295 292 292 291 291 293 294 292 293 299 301 303 305 306 309 311 309 309 308 311 313 314 314 315 317 316 316 317 317 316 316 315 315 315 315 315 315 315 316 317 317 317 319 319 320 321 320 319 317 318 317
288 286 281 282 284 285 285 289 289 287 291 293 295 295 294 292 292 293 295 296 294 293 293 290 289 291 286 292 290 289 288 293 288 289 295 291 288 287 289 288 289 289 294 299 299 301 303 305 307 309 310 309 310 309 311 312 312 313 313 313 315 316 317 318 319 319 317 316 315 314 314 315 315 316 316 316 316 317 319 321 320 319 319 318 317 317 316
285 285 287 285 283 285 287 288 286 284 287 287 289 292 294 293 293 294 296 294 293 293 292 291 294 287 288 288 285 287 288 291 288 289 288 288 289 290 290 288 290 291 296 301 302 304 305 307 308 309 308 309 309 309 309 311 309 313 315 315 314 315 316 318 318 318 317 316 316 315 315 316 315 315 316 316 317 319 318 318 318 317 318 318 317 317 315
288 286 285 289 284 283 286 282 283 283 286 287 289 290 291 290 291 291 296 294 292 291 288 284 286 286 284 285 284 282 286 289 285 284 286 287 292 290 289 289 294 298 296 298 301 303 306 307 309 309 311 312 311 312 312 312 312 313 315 314 314 315 315 317 317 317 318 316 317 307 316 316 316 317 318 318 317 316 316 316 317 317 317 318 317 317 317
284 281 282 286 289 289 288 289 289 288 288 289 289 290 291 289 291 293 296 293 290 286 284 287 286 283 282 279 283 287 289 286 283 286 285 288 292 289 288 290 290 292 294 294 297 298 298 300 301 303 306 309 311 313 316 314 314 313 315 315 316 315 315 315 315 316 316 316 316 317 317 318 318 318 317 317 317 315 314 314 315 317 317 317 318 318 317
Wind_Speed
22 23 22 22 22 21 21 21 19 18 18 4 3 4 5 7 8 8 8 5 6 6 7 6 7 8 5 3 13 16 13 10 1 6 6 7 2 3 4 6 3 2 3 4 7 3 4 1 2 8 3 11 8 4 3 4 4 7 3 6 5 1 4 3 6 2 4 1 4 4 4 4 5 6 6 2 4 8 6 4 5 4 6 4 1 1 2
22 23 24 23 22 21 21 20 19 16 13 5 6 5 7 7 8 5 5 5 5 5 4 4 5 7 5 8 2 13 8 7 3 5 6 2 1 0 2 2 5 6 4 4 7 8 4 6 5 4 4 5 5 5 2 3 3 6 4 3 5 4 3 3 5 4 4 3 3 3 2 3 3 4 3 4 5 4 4 5 2 3 6 9 6 1 2
22 22 22 22 21 21 21 21 19 17 12 6 4 4 5 7 7 5 6 5 5 7 7 5 5 5 10 8 9 6 6 5 8 4 5 5 2 1 3 6 5 5 1 6 6 3 3 4 5 5 3 6 1 8 2 1 6 10 8 5 3 3 2 4 1 4 4 2 2 1 3 5 2 4 7 5 5 8 3 1 3 3 4 7 3 3 1
22 21 21 21 21 21 21 21 20 18 15 11 4 4 6 7 5 5 5 6 4 7 7 7 7 2 5 6 8 11 8 3 5 6 5 4 6 5 6 2 3 5 4 4 2 4 8 3 2 4 5 5 5 2 6 8 7 8 9 4 4 4 3 4 2 7 5 10 8 2 3 5 4 3 4 5 5 5 4 4 3 3 4 3 3 5 6
22 21 21 21 21 21 22 21 21 19 16 8 3 5 5 5 8 2 4 4 5 6 7 8 5 3 3 3 5 9 5 7 3 5 7 8 2 2 4 9 2 4 7 3 4 4 3 6 4 4 2 9 7 2 4 7 8 4 1 2 2 4 3 2 2 2 8 4 3 3 4 8 6 7 3 4 4 3 4 3 4 5 6 2 2 5 4
22 22 21 21 22 22 22 23 22 20 18 10 3 5 6 6 5 5 4 3 2 5 6 9 7 8 3 3 7 7 9 4 2 6 6 5 4 1 5 4 6 3 2 1 1 4 1 4 2 7 8 6 6 6 1 6 7 4 5 6 3 5 3 3 1 4 2 4 5 4 5 7 4 3 2 3 1 2 3 4 7 6 3 1 3 3 4
23 24 22 22 22 23 23 23 24 22 21 7 4 5 6 8 6 7 5 6 5 5 8 9 8 6 6 5 9 8 8 5 8 3 5 3 5 3 1 3 5 1 4 3 3 1 3 1 4 5 2 5 4 4 3 7 8 5 4 3 3 3 1 2 3 3 1 2 2 3 6 2 5 3 3 1 2 3 4 5 6 6 5 5 5 1 5
23 24 23 23 23 23 24 25 26 25 24 7 5 7 5 5 4 5 2 5 5 4 8 8 8 7 1 3 6 9 6 8 5 3 1 2 6 5 2 5 6 4 6 2 2 5 3 1 2 2 8 5 6 3 3 6 6 7 5 2 3 2 1 2 7 6 5 5 1 3 6 4 6 5 1 3 1 2 7 2 2 2 3 2 1 1 4
22 23 24 23 23 23 24 25 27 28 21 3 5 5 4 5 5 4 7 5 6 6 4 7 6 3 4 6 6 10 9 8 1 6 2 4 4 3 5 4 11 4 2 6 0 7 5 3 4 4 5 0 2 2 3 3 6 8 6 4 4 1 2 2 4 2 3 6 2 3 4 6 6 6 4 4 6 4 2 1 5 5 1 2 0 4 5
22 23 24 23 24 23 24 25 26 29 24 4 5 5 9 6 7 6 6 6 4 7 5 7 6 5 7 8 9 7 8 9 5 3 1 6 6 4 5 6 5 7 1 4 2 4 5 6 10 5 6 2 1 3 4 3 4 5 3 5 5 5 4 3 1 3 3 8 3 5 4 4 6 7 7 5 4 2 4 2 4 2 1 3 1 7 5
20 20 21 21 23 24 25 24 24 26 17 7 6 4 7 7 6 7 5 6 5 8 6 6 8 4 3 4 9 10 11 8 5 4 1 4 5 4 1 2 3 2 6 3 3 6 3 3 2 5 7 2 3 2 2 2 3 1 5 4 3 4 4 4 3 3 0 6 4 2 4 4 0 4 5 2 2 3 4 4 7 6 3 4 1 2 7
20 21 21 22 22 24 24 24 23 22 18 8 6 6 6 6 6 6 6 5 6 8 8 6 7 6 7 7 10 9 10 9 4 5 3 3 10 5 2 3 0 1 8 5 1 2 2 3 2 3 4 2 3 4 5 2 3 4 3 5 3 4 4 4 5 3 3 4 4 3 3 2 5 3 4 2 3 4 1 5 5 4 6 3 3 4 5
21 21 21 22 22 22 22 24 23 22 22 12 6 6 7 8 5 5 6 7 6 7 6 7 6 7 5 9 10 11 11 8 5 2 3 3 3 1 4 4 5 5 1 1 1 4 5 4 3 5 4 4 5 4 4 5 2 2 6 4 2 2 3 2 3 3 0 2 2 2 1 6 7 5 4 3 2 2 2 5 5 5 4 6 5 1 6
20 21 21 21 22 22 23 22 22 23 23 18 7 6 7 8 6 5 3 3 5 5 1 9 14 8 9 7 9 7 11 11 2 3 4 3 5 5 4 1 8 4 2 2 4 4 2 2 1 2 4 5 4 3 5 6 1 2 5 3 1 5 5 1 3 3 3 1 3 3 4 6 9 6 5 3 2 4 4 3 5 7 8 5 4 3 7
21 21 21 21 22 22 23 22 23 24 24 23 7 8 3 7 6 5 5 5 4 7 7 5 4 14 17 10 10 9 6 7 8 5 8 2 7 2 6 5 0 2 4 4 4 3 2 0 0 2 2 4 3 2 3 6 7 2 3 2 1 3 6 2 2 1 2 3 4 3 4 4 4 4 6 3 4 4 2 3 6 3 6 7 5 5 8
21 21 21 21 21 22 22 22 23 23 24 25 9 8 4 6 6 6 5 5 4 4 6 6 3 5 13 7 8 11 5 4 7 6 6 6 6 7 3 3 2 1 4 5 4 2 1 1 2 3 3 3 5 4 4 4 5 8 4 3 2 2 3 5 3 1 2 2 3 2 3 2 6 8 6 4 3 4 1 3 8 8 8 8 7 6 7
21 21 21 21 21 22 22 22 23 22 21 21 10 8 3 8 6 6 6 4 5 5 11 6 4 7 6 8 7 8 8 4 5 4 3 6 7 7 7 5 3 5 5 5 4 3 2 2 4 5 6 5 5 4 5 5 4 7 7 5 5 3 4 2 3 3 3 3 2 3 1 1 6 8 7 6 5 3 2 4 4 5 8 8 6 4 7
21 21 21 21 21 21 22 21 22 22 22 22 11 6 5 6 7 8 5 5 5 7 9 11 10 5 7 2 4 10 8 4 6 8 8 5 7 8 8 6 5 4 3 4 2 3 2 1 3 3 5 6 5 2 3 2 5 4 6 5 5 5 3 3 4 4 3 4 3 4 1 5 8 8 8 7 4 2 2 1 5 4 7 5 4 2 5
21 21 21 21 21 21 21 21 22 22 22 23 16 7 3 6 7 8 5 6 5 4 8 9 13 11 7 7 8 7 8 7 7 3 4 5 4 6 10 6 4 3 4 3 3 2 2 3 4 6 5 3 2 3 2 3 5 2 5 5 6 6 4 3 4 4 5 5 4 4 4 4 8 6 6 6 4 2 0 4 2 4 5 5 2 2 4
21 21 21 21 21 21 21 21 21 21 22 22 15 5 8 6 6 6 7 6 5 8 8 8 6 7 10 11 6 6 6 8 8 1 1 6 3 6 7 4 7 5 6 3 3 3 3 4 5 4 5 7 4 1 4 7 6 8 5 5 4 3 3 4 4 4 4 3 4 3 2 2 5 7 6 3 1 3 5 5 5 3 5 2 3 3 5
21 21 21 21 21 21 20 21 20 20 21 21 17 6 6 5 7 5 5 5 5 7 7 9 7 12 11 12 9 12 7 6 7 9 5 5 6 6 4 4 4 4 3 4 4 4 3 3 6 5 4 6 1 1 3 5 6 6 7 1 5 5 4 3 5 5 3 3 4 1 3 9 7 8 2 6 1 5 3 1 4 5 3 4 3 3 5
21 21 21 21 21 21 20 20 20 19 20 20 21 8 6 7 8 6 7 4 6 4 6 13 14 13 13 14 12 10 11 9 9 7 5 5 6 8 3 6 6 5 4 4 5 4 5 5 3 6 4 5 2 3 3 4 4 6 8 4 4 6 3 3 2 4 3 2 3 4 6 9 8 4 4 4 5 5 1 1 3 3 4 1 3 5 4
21 21 21 21 21 22 21 20 20 19 19 18 14 6 7 9 8 9 9 7 6 9 10 11 11 12 13 14 14 14 13 11 8 5 4 6 4 6 8 4 6 5 6 4 6 5 6 6 5 4 5 6 4 4 5 5 5 3 2 8 5 2 1 3 3 5 1 5 3 7 7 7 8 4 1 1 4 6 2 3 3 3 4 2 4 8 7
21 21 21 21 21 22 22 21 20 19 18 16 11 8 8 8 10 9 8 6 6 5 7 8 9 8 9 12 11 12 13 10 9 6 2 2 3 3 5 6 8 3 4 5 4 4 5 5 4 4 4 3 4 5 4 4 6 6 5 5 8 5 7 5 5 3 2 2 5 7 6 8 7 6 4 3 2 5 4 3 3 1 6 1 8 7 7
21 21 21 21 21 22 22 21 20 20 18 17 15 9 9 9 5 7 7 5 4 4 3 4 6 9 12 14 9 7 4 6 2 3 4 5 7 6 7 6 2 2 5 5 2 5 1 6 4 4 4 3 2 5 5 4 3 4 5 7 5 5 9 6 6 7 5 5 5 3 3 3 5 5 5 7 6 6 6 2 3 0 5 3 7 7 7
21 21 21 22 21 22 22 22 22 20 19 18 12 7 7 7 8 7 6 5 6 5 4 4 8 8 10 13 11 9 8 5 4 7 8 9 10 9 8 5 3 2 3 2 2 2 3 3 3 5 5 2 6 5 5 4 4 7 5 4 7 7 2 2 1 4 5 6 9 6 6 7 8 8 7 4 7 7 7 6 5 4 5 5 5 6 8
21 21 21 22 21 21 21 21 22 21 20 17 11 8 7 7 7 4 6 6 6 3 4 5 7 11 10 18 15 12 7 6 7 8 9 9 11 9 7 5 5 3 4 4 4 3 3 4 3 7 6 6 1 5 4 7 6 5 5 5 6 4 6 5 4 5 4 5 5 3 5 5 8 10 9 6 5 8 9 8 7 7 7 6 6 7 5
22 22 22 21 22 21 21 21 21 22 20 20 13 8 7 6 3 6 5 6 6 3 5 6 9 11 16 16 12 11 10 10 9 9 9 10 11 10 9 9 6 5 5 4 3 4 4 5 8 5 7 0 1 5 6 7 6 5 6 6 4 7 5 5 5 4 3 3 2 8 8 4 2 5 2 7 6 5 7 10 9 8 8 8 7 7 7
23 22 22 22 21 21 20 20 21 21 21 18 10 9 7 5 4 9 7 5 6 6 5 7 10 10 7 6 8 10 10 10 10 8 7 9 10 10 10 10 8 8 8 5 4 4 4 5 5 6 4 2 3 4 5 5 5 5 7 8 9 5 2 4 7 7 8 8 7 2 2 5 6 4 1 7 6 6 6 6 8 9 10 9 8 9 8
23 23 23 22 21 20 21 20 20 18 18 10 7 5 3 5 6 7 9 7 6 5 3 4 4 5 9 9 12 14 13 13 11 9 11 10 11 10 11 10 9 9 8 5 4 4 4 4 5 6 3 4 6 4 5 6 7 7 9 11 11 9 9 7 5 6 6 5 6 5 4 5 7 6 3 4 6 7 7 8 7 7 8 8 10 10 9
23 23 24 23 22 20 20 20 18 17 15 7 6 2 3 3 5 7 10 8 7 5 3 3 5 8 10 9 11 15 13 10 9 8 10 10 9 11 10 9 9 10 5 5 4 5 4 5 4 8 7 5 1 3 6 7 6 8 6 7 10 12 11 9 6 7 7 7 8 6 6 4 3 5 6 6 6 7 5 6 6 7 6 9 10 9 8
24 24 23 23 22 20 19 18 16 12 8 6 5 3 4 3 5 7 8 9 8 5 3 4 4 3 4 6 8 9 12 13 12 10 8 6 8 7 9 10 9 10 7 5 5 4 5 4 8 7 8 6 6 7 8 9 6 8 7 8 4 3 1 3 4 5 6 7 8 7 8 7 7 7 6 9 8 7 6 7 6 6 2 4 6 8 9
25 24 23 21 21 21 19 16 15 10 8 11 14 13 10 8 5 6 7 8 5 4 4 3 4 3 3 5 9 10 13 9 9 8 8 5 9 6 8 8 9 10 7 5 4 4 4 5 6 10 3 7 3 3 8 10 10 10 10 10 9 8 7 7 8 8 8 7 7 8 7 8 8 8 7 6 9 9 7 8 8 7 7 9 10 10 10
25 24 23 22 21 20 18 15 17 14 11 6 4 6 4 3 4 2 7 5 4 4 3 3 3 4 5 6 11 8 5 8 7 7 7 6 6 6 4 5 4 4 4 6 4 5 5 7 5 6 4 4 5 5 6 11 11 12 12 12 11 10 10 11 10 8 8 8 8 9 8 6 6 4 7 7 6 7 7 7 8 9 9 10 11 12 11
24 24 23 21 20 17 20 15 7 4 4 7 2 5 2 2 4 6 5 4 3 2 3 4 3 5 5 5 8 8 8 7 9 7 9 1 4 6 7 4 3 5 2 5 5 5 5 6 6 5 7 5 5 5 8 11 13 12 12 13 11 11 12 12 11 9 8 8 8 8 8 9 9 9 10 10 8 9 9 9 10 9 9 9 11 11 10
24 23 21 21 23 17 8 4 4 4 4 2 4 8 12 12 9 6 6 6 4 4 3 4 3 6 5 6 6 4 6 12 7 7 5 2 3 2 1 2 5 4 5 5 5 8 7 6 4 7 7 8 7 7 10 11 13 13 14 13 11 11 9 10 9 9 9 8 10 9 9 10 12 11 10 10 10 11 11 10 10 10 10 9 10 9 9
23 23 24 22 11 3 6 0 6 5 4 7 12 16 19 12 4 4 5 4 5 5 5 5 5 7 8 8 4 5 6 8 3 6 4 3 3 1 2 1 4 0 1 5 4 5 9 7 6 6 6 9 9 12 13 12 12 14 13 12 11 11 11 11 9 8 9 11 12 8 10 11 11 10 10 11 11 11 11 11 10 11 11 11 9 10 10
26 25 12 7 5 2 0 5 5 6 11 12 10 7 3 4 2 3 2 3 4 5 4 6 8 9 8 9 8 7 8 8 5 5 3 2 1 2 2 1 0 2 5 4 6 8 6 6 7 8 9 13 12 14 15 13 12 11 12 12 12 12 12 11 10 9 10 11 12 11 12 12 12 12 11 12 12 12 10 10 10 9 10 10 9 8 10
17 7 6 6 4 3 4 7 7 10 10 7 4 2 2 1 2 2 3 3 2 5 6 7 8 8 9 11 11 8 10 9 10 8 7 5 3 2 2 3 2 3 4 5 6 4 5 6 6 7 10 12 14 14 14 14 13 12 11 11 10 10 11 12 10 10 10 11 10 10 11 11 13 13 11 11 11 10 10 10 10 10 9 10 9 9 9
8 8 5 5 4 7 9 9 11 9 5 3 4 2 2 2 3 2 1 3 3 4 4 6 7 9 10 12 11 11 7 11 9 8 9 3 4 4 1 2 1 0 4 7 4 7 7 7 5 7 11 12 14 11 12 14 14 14 14 14 15 13 11 12 11 8 10 11 12 12 12 13 11 11 12 11 10 11 11 11 10 9 9 9 8 9 9
7 7 6 5 8 7 8 10 8 4 3 2 1 1 1 2 3 1 1 3 4 3 3 7 6 7 7 10 11 13 8 7 9 9 7 6 1 3 3 4 3 4 5 6 3 4 5 6 7 11 9 10 12 12 14 16 16 16 15 14 14 13 13 13 13 12 12 13 13 13 13 14 14 14 12 12 11 10 11 10 10 10 9 10 9 9 8
9 8 8 10 11 11 10 7 3 2 1 1 1 2 3 2 1 2 2 3 1 2 6 8 5 6 7 8 9 10 8 7 7 5 4 5 3 5 4 4 2 4 5 4 5 5 5 7 9 9 9 10 10 11 12 13 12 13 14 14 13 12 13 13 15 15 14 13 13 13 11 12 13 13 12 12 11 10 10 10 10 10 10 9 8 9 10
22 17 9 7 6 5 2 3 2 1 1 0 1 2 2 2 3 3 3 2 3 4 6 5 5 9 8 6 9 6 7 5 6 4 5 5 2 3 4 4 4 7 6 4 6 5 8 9 8 8 7 10 12 14 15 16 14 13 11 10 10 11 13 14 15 15 15 15 13 12 11 11 12 12 13 12 11 11 11 10 11 10 10 10 10 9 9
11 8 4 2 3 3 1 2 1 0 1 1 2 3 3 3 2 2 1 3 5 5 8 10 10 11 8 8 8 7 7 6 5 4 5 2 3 4 4 5 6 6 4 6 5 10 9 7 10 9 9 11 12 14 14 13 13 13 13 14 14 12 12 14 14 15 15 13 12 12 11 11 12 13 14 13 12 12 11 11 11 10 10 10 10 10 10
4 3 2 2 1 3 0 1 1 2 3 2 1 2 3 1 3 5 2 5 3 7 8 6 7 8 8 9 6 5 4 4 4 5 4 4 6 5 6 6 4 4 5 6 6 7 7 12 11 12 13 12 11 11 11 11 10 12 12 13 14 14 13 13 14 14 14 14 14 13 13 12 13 13 13 13 13 13 12 12 12 12 12 12 12 11 10
3 3 3 3 2 2 1 2 1 2 1 2 0 2 2 2 3 3 3 3 5 6 7 8 8 7 8 5 2 4 4 3 2 4 4 4 4 5 5 4 4 6 5 7 9 14 14 11 8 10 11 11 11 13 14 13 13 15 16 13 11 12 12 12 11 13 14 13 13 14 13 12 13 13 13 13 13 13 13 11 11 13 13 12 12 11 11
3 2 2 2 3 3 1 2 2 1 2 1 1 3 4 4 2 3 1 1 3 5 7 8 7 5 6 5 2 3 1 0 3 5 5 6 5 4 3 5 6 6 7 9 10 9 10 9 9 12 11 10 11 11 12 11 12 14 15 11 9 10 10 11 12 14 14 15 15 14 13 13 13 13 12 12 12 12 12 12 11 11 11 12 11 11 11
3 2 2 1 3 2 2 4 4 3 6 3 2 3 4 2 3 4 4 2 2 5 7 8 8 6 3 3 3 6 5 1 3 5 1 3 3 4 4 5 7 6 6 8 13 11 10 9 10 11 9 10 13 15 15 12 11 13 14 11 10 11 12 13 14 15 16 16 15 14 13 13 13 13 13 12 12 12 11 11 10 10 10 10 11 11 11
2 2 2 2 2 2 4 8 8 6 6 5 4 5 5 6 6 5 1 2 1 3 4 5 4 4 4 2 2 2 2 1 3 3 1 1 1 4 4 7 6 9 7 10 11 9 9 10 10 8 9 12 12 12 10 10 12 14 14 14 12 11 12 13 13 13 14 14 14 14 13 13 13 13 13 13 13 12 11 10 10 10 10 11 11 11 12
2 2 2 4 4 5 7 8 8 7 7 8 6 5 6 7 8 4 5 2 4 4 4 3 2 2 2 2 2 1 2 2 1 3 3 6 4 3 5 9 6 6 9 9 11 10 10 10 9 10 11 12 13 13 14 13 11 12 12 12 11 11 12 12 13 14 15 14 14 14 14 13 13 13 14 14 12 11 11 11 11 11 11 12 12 12 12
2 2 3 5 6 6 6 6 5 6 5 6 6 7 8 7 7 3 6 2 4 4 2 4 3 2 2 1 1 4 2 2 1 2 2 3 2 4 8 10 6 10 14 15 15 15 16 15 13 13 15 16 14 13 13 13 15 14 11 11 10 11 12 13 14 14 14 15 13 12 14 14 14 14 12 12 13 13 13 12 12 12 12 11 12 13 12
2 3 4 4 6 7 7 8 8 8 8 8 8 7 6 8 6 1 5 4 4 3 5 3 2 3 3 4 3 1 2 2 3 2 5 4 3 5 5 7 9 11 14 17 17 17 16 16 18 20 20 19 16 17 18 14 12 12 10 8 10 12 13 12 13 13 13 13 14 13 12 12 13 12 12 12 12 13 13 11 11 12 11 11 11 13 13
Wind_Direction
358 358 356 353 351 350 348 349 348 352 339 293 272 236 250 234 257 100 180 158 223 232 255 257 241 248 211 137 192 211 239 269 143 245 154 218 134 327 283 23 40 33 294 19 264 135 260 294 263 10 346 86 76 90 42 25 259 272 330 119 90 142 257 281 273 258 135 139 128 98 357 298 270 220 216 299 353 25 331 336 338 330 314 282 30 72 96
359 358 356 353 350 348 348 347 350 349 4 336 317 268 250 247 250 173 154 185 235 248 246 238 247 269 223 215 234 270 257 263 208 295 141 311 119 214 315 189 210 351 91 267 290 53 294 67 285 247 217 87 37 96 321 202 228 235 85 34 46 261 144 295 353 295 247 194 148 165 52 293 265 72 52 354 331 286 11 319 253 264 11 357 327 75 160
359 357 355 352 350 348 347 347 346 350 346 334 303 270 241 255 252 235 161 205 193 237 225 256 313 356 321 335 297 279 273 234 313 318 353 116 45 97 315 346 32 195 129 302 340 55 313 330 51 349 294 92 186 72 12 5 312 61 57 6 216 230 54 313 281 9 358 310 308 345 344 337 350 351 15 3 343 34 299 295 352 307 39 26 11 67 86
360 356 353 352 350 348 348 346 346 345 347 327 246 276 289 243 250 189 189 174 209 242 271 299 296 334 355 275 239 230 274 239 184 279 249 138 7 307 350 256 210 329 250 234 218 218 129 260 213 204 209 132 122 141 147 208 63 45 40 319 315 315 3 238 28 143 148 212 261 314 299 292 336 42 313 3 15 2 331 305 293 30 346 56 15 80 184
0 356 352 351 351 349 349 348 344 345 342 340 283 273 258 307 271 174 224 173 228 242 215 233 223 292 277 269 249 265 217 250 185 161 274 122 159 84 328 324 25 317 7 1 291 7 276 136 328 247 173 81 94 192 191 184 76 31 74 230 279 288 276 287 199 186 183 219 303 5 258 280 307 290 101 35 355 25 327 349 14 354 297 101 157 237 299
0 358 353 352 351 350 349 348 345 344 341 327 259 260 219 242 254 267 352 302 184 213 234 225 228 179 249 271 301 270 251 245 204 149 281 31 135 4 148 249 314 88 67 115 6 271 193 57 194 283 96 124 123 159 212 198 114 196 215 162 276 292 274 165 301 264 327 314 310 279 320 319 358 5 75 119 37 359 322 16 23 349 17 35 62 346 309
0 359 355 354 352 351 351 348 347 344 338 318 251 263 221 262 312 316 117 227 250 305 353 306 232 170 199 222 245 260 290 247 219 209 143 286 148 183 121 295 246 147 184 250 349 322 18 332 39 301 20 106 158 125 164 127 138 192 245 143 147 263 275 315 265 323 249 170 234 19 270 182 247 184 180 14 168 79 31 54 29 351 14 16 345 346 61
0 359 357 356 354 352 353 351 350 346 338 299 240 237 296 254 286 271 165 261 272 280 263 241 245 218 92 294 292 282 249 259 284 45 343 120 284 131 283 233 190 111 297 59 298 39 88 25 224 207 307 108 258 106 279 137 164 183 184 165 110 243 56 13 303 288 199 174 149 250 264 195 254 157 317 175 84 288 80 330 127 49 275 324 199 39 180
1 360 359 358 356 354 354 355 353 347 344 217 216 243 251 323 295 329 307 269 228 231 219 257 248 230 198 245 242 253 253 247 338 280 116 127 256 122 256 21 98 98 184 349 356 340 48 161 201 151 245 214 321 296 119 116 168 185 139 211 125 239 258 265 262 273 215 163 188 188 277 294 296 309 180 216 135 253 145 313 59 348 12 53 353 226 138
2 1 359 358 358 356 357 359 357 354 333 299 305 249 10 324 326 291 260 271 295 255 207 231 234 247 221 210 238 259 252 268 225 269 52 306 354 334 8 30 308 125 25 198 354 145 265 358 127 180 202 290 294 253 4 231 169 160 196 138 207 171 257 243 273 267 264 136 207 170 219 272 263 233 217 211 161 334 78 178 118 227 320 282 15 52 87
360 358 355 355 357 358 359 360 2 3 1 24 348 357 12 12 328 333 285 263 259 261 249 210 228 230 177 216 247 250 265 248 237 219 164 233 214 118 300 338 219 286 161 132 108 331 79 271 139 152 256 113 251 149 261 262 346 21 150 136 249 298 282 272 203 257 106 142 147 128 255 257 17 37 22 138 194 184 235 247 174 151 207 24 83 138 122
359 357 354 353 354 357 359 360 1 6 8 335 308 291 11 346 315 272 273 258 263 262 258 256 230 158 174 214 230 245 272 274 274 218 250 334 40 355 66 198 5 326 78 69 125 259 331 345 259 285 276 202 240 205 190 254 111 245 118 184 181 207 247 265 276 246 304 123 125 243 248 246 95 74 58 18 355 321 243 281 348 136 165 206 254 130 141
360 358 355 354 354 354 354 356 359 359 2 348 311 307 12 349 312 310 289 277 263 264 288 280 269 244 223 223 235 229 231 251 249 1 22 3 318 235 286 33 187 79 302 101 131 209 212 229 201 245 173 198 206 202 159 154 224 99 323 342 88 196 219 266 295 294 268 249 195 253 257 117 166 136 133 74 280 101 278 286 264 255 223 157 248 172 151
360 358 357 355 354 354 354 354 354 355 357 355 324 313 336 15 353 337 335 308 292 276 21 308 294 235 187 228 248 262 267 245 127 84 254 187 253 240 147 310 46 34 229 105 219 223 249 254 156 239 192 203 116 301 183 106 196 153 199 134 331 321 275 230 276 159 274 310 277 279 120 198 150 136 152 199 168 183 219 246 243 234 206 186 202 212 144
359 358 356 355 354 355 354 353 354 356 355 349 313 291 345 20 352 328 316 286 286 297 289 270 321 345 302 221 215 241 232 324 289 196 236 129 251 102 79 87 223 210 94 210 181 224 248 197 146 249 239 210 172 239 162 228 146 229 42 15 261 222 265 44 245 141 250 283 300 282 234 251 124 99 120 120 97 348 49 289 271 243 158 156 178 221 151
358 357 356 355 354 353 353 353 354 355 357 350 333 327 32 22 337 310 307 293 302 286 262 250 17 312 291 279 236 232 225 211 242 253 210 187 223 114 177 105 101 353 182 226 243 193 237 196 214 255 243 227 223 228 213 197 203 155 139 184 220 267 301 292 281 277 184 243 262 259 292 59 151 128 128 103 118 186 28 267 267 156 155 152 161 209 142
356 356 355 354 353 353 353 353 353 353 355 359 336 312 355 36 0 340 321 290 239 259 287 286 184 199 263 286 289 242 235 225 262 266 239 200 199 162 124 120 87 240 208 253 240 200 204 228 254 232 244 236 236 224 237 265 218 166 168 200 207 199 219 221 235 268 273 272 243 273 312 126 136 139 148 151 111 141 223 276 74 138 146 144 148 190 149
355 354 354 353 352 352 351 351 351 350 352 351 340 307 315 28 7 336 293 274 280 271 270 276 293 304 290 320 300 311 294 238 209 229 248 235 218 180 143 150 181 202 258 234 270 274 247 237 239 251 270 258 244 130 249 189 235 202 197 194 202 197 244 221 257 248 211 177 275 289 122 108 142 140 137 136 149 200 237 289 112 61 95 125 122 202 154
353 353 352 351 351 350 349 350 351 350 350 353 342 291 211 21 2 355 304 285 275 255 276 297 344 303 272 278 281 278 273 293 289 323 316 272 235 186 147 186 184 171 189 234 240 251 241 233 246 266 262 240 134 262 314 294 303 211 211 218 219 221 201 223 254 261 265 221 243 245 86 108 135 127 128 123 177 210 141 101 120 105 104 84 219 144 154
351 351 349 349 349 350 348 349 349 349 350 351 354 316 295 310 21 19 5 334 330 303 295 308 275 303 316 293 287 278 285 297 298 278 130 279 320 234 142 205 168 245 175 223 231 229 235 228 236 245 251 269 284 310 197 248 219 256 232 208 273 216 194 234 208 225 240 272 297 314 247 154 150 128 144 160 244 88 138 138 104 167 121 161 138 212 171
351 349 347 346 347 347 346 346 346 345 347 348 348 326 324 71 0 21 349 336 311 310 293 259 288 340 316 302 310 312 306 289 323 314 343 291 316 298 200 203 171 190 219 164 217 214 232 253 237 233 252 279 99 314 300 311 278 221 264 264 243 100 239 203 236 185 255 214 225 237 58 131 144 162 167 186 42 46 35 58 170 116 154 199 158 222 142
348 346 344 344 344 344 343 343 343 342 345 348 341 319 308 348 339 345 332 307 274 260 278 305 306 291 294 291 285 279 288 293 276 306 313 326 306 286 288 164 230 197 231 178 200 246 200 244 249 258 256 238 228 265 163 238 232 250 170 85 250 130 243 48 352 28 268 335 63 146 152 144 169 214 54 142 134 148 136 308 57 186 139 130 175 130 123
346 345 343 341 341 340 339 340 339 338 341 345 347 337 320 315 327 326 305 293 263 259 267 273 277 275 265 264 265 264 262 261 255 231 255 281 304 279 261 225 229 209 238 209 239 226 233 212 234 243 266 274 283 274 223 224 281 304 193 166 266 156 116 60 318 250 275 308 13 85 138 161 171 215 182 191 179 131 142 235 206 233 117 189 168 133 169
344 343 341 339 338 337 336 336 335 334 333 338 339 317 312 313 296 313 326 297 281 296 289 264 260 261 265 272 262 235 228 233 246 261 233 279 269 293 280 276 333 299 261 56 27 325 355 332 336 341 296 276 257 244 263 252 237 273 271 210 198 215 155 204 224 251 39 260 154 200 184 163 182 220 168 164 157 141 183 186 261 188 125 221 107 157 141
342 340 338 337 335 335 333 333 332 329 329 333 333 299 269 276 293 346 332 332 337 340 306 318 289 283 269 259 273 312 252 245 224 212 218 217 240 260 275 3 79 306 329 2 304 297 264 279 275 229 255 250 281 284 291 290 252 201 247 261 261 201 145 215 209 250 238 267 282 144 191 175 178 210 208 179 188 190 174 201 226 75 137 184 138 139 156
339 338 336 334 334 332 331 329 328 326 326 325 322 308 314 304 314 307 301 308 296 277 280 282 280 282 270 262 248 250 259 243 218 235 231 230 234 240 276 330 311 282 269 268 294 254 276 252 240 283 296 290 185 256 266 276 324 49 313 7 83 103 122 265 118 246 255 254 258 247 192 200 211 205 226 228 175 190 177 185 204 194 158 193 163 155 169
336 335 333 331 332 330 329 328 325 324 321 322 323 299 286 286 284 354 11 348 324 267 220 247 287 282 332 335 322 305 263 220 249 261 266 254 244 224 227 242 271 264 254 231 219 246 239 256 259 258 225 272 218 244 267 259 256 251 246 184 152 206 230 244 229 234 245 267 285 272 231 212 214 209 194 214 194 176 178 179 203 200 191 197 196 172 208
334 332 330 330 329 328 327 325 323 322 321 319 308 281 270 279 356 49 18 10 345 323 322 307 301 311 323 289 290 280 284 274 252 241 244 248 244 240 224 217 227 251 228 232 223 206 236 239 234 234 275 163 107 250 225 275 308 293 275 256 209 227 250 245 240 235 261 327 259 50 349 319 49 54 169 180 197 193 183 183 194 200 200 199 209 185 208
331 329 328 327 326 324 323 322 321 320 322 320 296 287 252 241 54 61 28 358 329 307 296 288 285 278 274 299 272 261 268 263 255 263 276 274 258 232 228 225 220 226 237 231 243 231 224 244 260 269 243 338 300 242 253 238 232 241 238 256 279 286 323 244 275 316 308 293 294 299 269 287 4 1 168 181 181 184 193 215 199 201 198 200 207 205 202
328 326 324 324 321 321 320 318 318 317 323 313 300 282 218 122 36 41 16 348 334 317 303 319 310 301 322 307 303 303 282 266 257 241 243 248 253 256 229 218 225 229 238 237 220 228 232 249 233 238 224 157 232 284 252 257 248 237 223 231 243 251 249 236 235 250 273 306 298 305 286 238 230 243 185 174 165 182 199 210 215 213 214 206 204 207 202
325 323 322 318 318 316 314 314 313 316 314 307 306 284 253 207 87 14 1 340 332 310 299 283 281 311 292 274 270 270 284 285 266 257 254 252 254 251 247 232 220 219 225 234 232 231 230 235 225 246 212 155 146 241 255 257 260 260 248 227 218 218 224 233 195 201 236 255 272 268 280 243 222 233 176 194 196 187 202 222 204 212 226 213 210 212 206
323 320 317 316 311 308 309 306 306 311 301 285 304 336 25 354 338 332 334 322 311 275 268 288 299 274 289 281 255 260 260 261 264 260 245 243 254 254 259 236 226 214 224 231 230 230 219 247 253 249 245 137 144 244 249 251 255 252 268 275 295 307 323 283 245 227 221 242 256 250 234 232 221 225 214 184 199 185 210 218 227 209 186 245 231 214 216
319 316 313 309 306 304 303 297 295 297 284 290 304 281 261 259 281 280 329 323 288 251 277 281 270 295 274 304 327 265 235 239 253 257 259 210 242 222 244 257 257 241 204 232 218 241 228 227 222 248 223 109 188 224 240 242 246 254 267 275 282 283 271 248 230 232 243 233 226 241 235 219 229 212 223 218 191 195 193 215 216 214 212 214 228 228 217
317 312 309 305 301 302 297 289 291 287 271 256 255 134 120 173 229 297 323 286 270 279 272 261 260 260 266 299 281 299 279 248 248 234 251 225 237 245 260 252 281 291 191 227 222 243 228 246 237 237 159 179 219 238 238 240 247 252 250 251 249 251 249 257 254 246 236 239 227 225 237 239 233 218 188 226 185 166 189 206 217 209 209 215 218 220 215
313 310 304 301 298 292 296 290 294 254 244 251 98 95 90 183 281 286 278 308 300 220 212 223 251 274 285 280 272 270 264 250 244 239 254 303 336 259 250 256 193 233 227 227 247 230 241 232 234 240 231 220 216 221 233 238 238 243 248 254 255 259 265 265 259 245 234 230 239 231 214 224 230 215 210 204 190 184 190 208 215 200 202 212 216 206 197
311 304 301 299 297 292 287 232 219 270 244 335 1 322 307 300 304 274 220 227 256 308 283 272 249 249 250 262 267 275 271 261 247 246 256 106 234 319 265 138 266 252 289 231 244 224 234 216 214 233 224 237 227 223 232 232 237 241 248 255 261 263 265 266 264 235 226 232 240 240 216 214 227 221 207 198 198 193 193 208 212 198 204 210 207 182 174
307 305 302 297 284 244 255 115 79 48 3 298 281 287 282 284 248 215 200 209 210 220 264 279 264 257 255 269 271 264 272 268 228 243 187 219 221 193 248 231 242 142 201 255 249 252 243 229 235 233 219 229 238 237 240 231 227 236 243 251 256 252 256 262 257 238 230 234 237 227 223 217 219 225 204 198 202 201 194 204 209 200 200 204 200 187 184
309 303 298 301 299 288 125 59 12 347 322 300 295 288 216 172 239 184 186 221 200 190 221 229 250 261 277 279 273 302 292 269 261 261 224 155 205 200 157 182 232 324 262 237 232 230 241 241 241 238 237 234 237 241 244 239 229 230 239 247 253 260 265 261 248 221 218 230 237 230 219 214 217 217 207 201 204 204 200 199 209 208 203 202 201 197 184
300 315 339 348 339 19 352 348 6 328 307 278 234 263 231 190 231 239 193 188 182 217 210 228 242 238 247 256 266 265 272 301 286 266 255 155 205 235 186 217 181 178 244 256 247 208 249 234 247 249 247 239 239 234 233 243 250 257 255 244 239 240 250 257 243 223 213 220 229 222 216 211 209 211 206 209 204 203 199 196 207 209 207 204 198 203 193
5 355 352 343 357 345 324 321 334 311 275 270 212 247 269 221 221 239 191 234 219 229 197 235 221 240 235 251 260 257 240 254 259 265 275 258 161 256 168 224 128 221 240 229 217 187 243 245 230 239 244 235 240 232 239 242 244 244 248 253 256 249 235 242 249 224 215 219 226 233 220 213 206 214 211 210 209 201 194 196 202 209 207 208 198 203 193
359 345 336 345 335 321 309 311 304 270 246 242 238 230 269 258 223 258 261 245 250 254 231 282 282 268 243 240 242 254 243 258 280 293 286 275 239 262 192 206 185 223 222 232 202 230 235 238 234 237 237 225 232 233 237 241 241 241 242 247 246 239 238 238 240 236 219 220 221 225 226 215 207 210 216 213 208 204 192 192 198 205 206 206 199 202 180
310 292 291 292 291 280 280 270 246 247 258 264 249 237 211 243 227 230 229 268 283 343 24 12 358 1 311 311 305 297 273 250 274 258 259 255 214 239 250 245 211 244 241 229 222 227 227 245 237 239 235 245 236 231 233 237 234 237 239 237 238 238 232 233 237 233 228 220 219 220 220 214 206 203 211 214 206 201 190 186 192 198 203 206 202 193 188
287 270 247 266 267 278 272 278 209 208 214 231 212 274 222 228 216 232 215 84 29 353 17 345 344 323 291 307 310 319 302 278 244 225 226 245 246 227 230 231 229 231 227 240 243 247 237 239 242 247 239 234 246 251 254 256 258 254 249 246 242 222 218 225 228 232 228 223 217 217 214 209 203 204 206 213 206 202 196 187 189 196 196 200 204 197 189
285 281 228 249 276 281 234 277 188 47 315 233 157 208 203 228 229 220 237 44 356 6 9 4 351 1 326 351 332 315 314 289 244 260 258 242 241 231 217 228 231 260 267 238 225 236 247 254 256 254 231 235 240 245 248 246 247 251 248 246 251 243 219 218 223 225 224 223 220 214 216 212 204 204 204 210 208 205 199 195 188 193 191 191 202 200 191
321 351 327 312 295 290 23 300 172 145 235 249 271 309 0 274 30 5 11 8 355 334 339 340 337 341 316 321 301 247 251 303 333 262 230 228 245 236 241 232 227 239 239 241 238 241 234 243 243 254 252 242 242 251 255 256 256 252 245 240 240 238 230 224 219 217 220 220 218 212 212 211 209 206 204 205 207 207 204 199 188 188 197 195 202 202 186
346 334 335 338 314 280 233 290 348 257 94 49 10 302 294 328 327 331 7 6 334 330 339 334 329 320 315 323 295 309 339 316 283 255 268 257 254 235 231 250 253 241 235 240 240 238 241 245 246 250 251 251 249 246 246 248 253 262 261 246 232 227 222 221 218 215 217 217 217 214 210 210 210 208 205 204 204 205 205 202 190 190 193 198 200 200 186
328 321 323 317 290 281 278 281 265 315 53 141 237 258 258 286 310 291 16 22 321 328 319 319 305 300 306 328 321 293 262 322 287 322 299 245 241 257 228 241 225 218 233 238 239 246 251 252 251 259 264 261 261 268 265 252 248 252 254 246 232 229 224 221 218 217 216 217 217 213 208 207 209 208 207 206 205 205 202 194 184 181 188 195 196 196 195
324 316 322 284 267 264 229 236 252 177 160 206 272 265 289 277 243 243 198 170 315 302 322 329 331 323 284 190 201 275 290 320 301 277 231 319 302 263 249 236 233 230 224 239 247 253 259 260 259 257 255 248 246 249 256 261 259 257 251 235 221 223 222 223 224 223 220 217 214 211 207 205 206 205 203 205 203 201 193 186 183 181 186 190 199 199 201
325 311 295 270 280 296 292 302 317 298 289 265 206 219 231 225 240 247 217 108 247 316 328 335 318 306 286 337 310 287 280 196 229 268 289 232 266 259 240 240 226 232 228 243 258 259 257 257 261 262 257 266 276 273 261 251 254 261 257 238 221 215 217 221 224 226 222 217 213 209 206 203 204 203 203 202 203 195 190 184 187 189 185 192 198 201 200
267 242 243 255 274 272 268 269 268 274 266 268 248 226 230 234 231 173 121 114 69 9 325 231 196 249 298 10 293 268 258 9 343 333 314 281 275 275 280 269 252 250 252 255 265 267 274 277 281 277 269 259 256 261 267 266 263 260 253 238 218 215 214 215 219 222 222 217 213 208 204 198 201 202 204 202 199 194 190 193 194 197 193 194 199 200 201
236 250 261 261 262 281 308 300 296 293 296 296 295 293 297 314 317 353 103 44 29 343 332 293 277 284 299 267 252 257 240 92 3 257 237 259 279 258 244 255 314 351 342 344 335 333 326 326 329 329 325 316 298 276 251 251 258 259 249 227 221 223 223 215 216 216 217 217 214 208 203 201 201 204 204 204 201 199 198 194 192 198 197 191 196 202 202
271 254 261 273 272 273 273 282 283 282 289 299 301 298 284 266 261 185 108 324 317 300 288 306 322 286 261 249 246 283 339 10 253 248 251 226 227 279 339 348 339 334 343 338 336 338 338 336 340 338 335 330 330 329 310 269 244 253 252 229 217 228 228 220 210 210 210 212 214 212 208 204 199 201 201 203 203 202 202 196 189 193 194 196 196 202 206